CAPE
1623 1938 1816 51 2 0 0 24 2 0 1087 2324 2132 1855 1712 1766 1574 1256 1135 1047 1148 1169 1174 1259 1352 1223 922 638 483 489 545 431 462 523 0 0 2 4 6 121 145 63 40
1888 1515 614 380 106 45 338 433 99 10 1843 2264 2044 2033 1913 1642 1354 988 920 940 1044 1055 986 895 873 1033 787 770 704 584 515 490 372 559 0 0 0 1 0 34 136 19 0
298 485 316 163 71 41 298 532 1357 1905 2024 1799 1937 2035 1734 1455 1008 760 624 719 740 724 662 668 736 700 594 471 335 310 381 314 289 446 378 0 0 1 1 1 15 22 1
0 0 0 1 81 77 654 1269 491 0 0 24 76 1028 1441 1200 984 726 371 339 300 325 343 322 396 410 317 364 146 152 106 114 168 159 0 0 0 0 0 2 2 6 51
63 23 1 0 0 0 0 533 368 18 0 36 71 4 656 1066 914 344 54 93 89 118 106 141 191 137 211 132 85 27 63 201 245 234 103 1 0 0 0 1 1 0 1
0 0 0 0 0 0 113 330 394 76 0 0 0 0 273 842 494 92 24 33 62 80 120 124 122 252 272 242 175 101 1 214 196 132 84 10 4 6 30 6 0 0 0
104 24 0 0 82 216 214 284 601 547 248 24 0 108 734 664 277 0 0 17 19 100 98 93 28 45 56 8 64 78 58 15 9 0 0 1 8 2 0 1 0 0 0
509 424 206 98 241 179 286 389 281 132 345 443 548 551 560 620 430 102 0 0 0 11 21 56 21 0 8 0 0 0 15 3 0 0 0 0 0 0 0 0 0 4 4
187 376 409 286 293 215 209 4 4 120 176 218 135 119 101 63 71 0 0 0 6 88 70 21 9 0 0 21 0 0 3 37 5 2 2 0 0 0 1 2 5 2 4
0 41 234 157 163 275 134 19 23 129 169 173 136 51 10 18 30 0 0 2 15 64 19 16 13 18 11 7 1 37 89 28 22 4 0 0 0 1 1 0 0 5 1
20 131 227 294 306 233 186 160 174 227 212 178 109 92 1 0 0 0 0 0 19 46 6 14 28 1 15 1 0 4 37 9 0 7 1 1 1 2 2 0 0 0 0
15 72 166 152 188 257 130 149 186 175 161 123 77 62 78 3 0 0 0 1 5 35 66 67 38 7 1 1 1 1 0 0 0 0 19 2 3 2 0 0 0 0 0
6 49 75 95 157 138 84 117 129 107 131 136 62 28 1 0 0 0 1 1 1 28 43 31 30 1 1 1 0 7 0 0 0 0 11 0 0 4 0 4 0 0 0
0 31 57 39 61 38 38 68 59 66 41 62 5 25 16 0 4 3 1 1 1 1 35 1 1 0 1 0 1 1 0 0 0 0 0 0 1 3 7 1 0 0 0
3 0 15 38 52 45 55 74 105 85 32 75 87 75 66 65 19 25 0 0 1 2 20 1 1 2 1 1 1 1 1 3 15 4 0 0 1 1 1 0 0 0 0
6 3 2 1 2 2 2 35 37 31 10 1 1 1 0 6 4 1 0 1 1 2 30 15 39 19 30 9 7 2 1 1 3 0 0 0 0 0 0 0 0 0 0
1 2 8 0 5 34 0 1 1 2 12 1 1 1 1 1 1 0 1 1 2 1 112 58 51 27 29 8 1 1 1 1 6 0 0 0 0 0 0 0 0 0 0
0 9 3 5 6 8 7 3 36 90 42 81 1 1 1 1 0 0 1 1 1 1 63 115 143 63 25 1 1 1 0 0 0 0 0 0 0 0 0 0 0 0 0
1 3 5 5 7 3 3 19 17 16 62 58 59 18 1 0 0 2 1 1 0 1 2 76 122 50 20 3 1 1 0 0 0 0 0 0 0 0 0 0 0 14 24
0 5 4 6 5 4 8 5 5 6 4 6 7 6 3 0 0 0 1 1 2 0 0 0 12 93 15 10 0 0 0 0 0 0 0 0 0 0 0 1 6 15 12
0 1 5 4 5 6 8 8 6 6 5 4 5 5 1 0 6 1 0 2 1 0 0 1 6 32 30 7 2 1 0 0 0 0 0 0 0 0 0 0 0 1 40
0 0 1 4 6 5 5 5 5 5 6 4 3 3 0 3 5 4 6 6 4 0 0 0 0 0 1 0 4 10 1 1 0 0 0 0 3 5 5 3 0 0 0
0 0 0 0 2 4 3 4 4 4 5 5 5 5 5 4 6 6 6 6 5 2 3 3 1 0 0 0 0 0 0 0 0 0 0 0 1 4 2 2 0 4 0
0 0 0 0 0 0 0 4 4 2 4 5 4 4 6 6 6 5 5 5 4 5 2 2 4 2 1 0 0 1 1 1 0 0 1 6 27 11 5 3 2 6 6
0 0 0 0 0 0 0 0 0 1 4 5 5 5 4 4 5 6 5 4 4 3 3 4 3 4 3 2 2 1 0 1 1 1 0 0 0 0 1 1 10 0 0
0 0 0 0 0 0 0 0 0 0 0 1 4 5 6 5 2 1 2 3 4 3 3 3 3 2 3 1 1 0 1 1 0 2 1 0 0 0 0 0 6 12 10
CIN
-433 -359 -363 -1112 -1058 -0 -0 -384 -242 -0 -59 -164 -170 -161 -182 -170 -151 -138 -180 -156 -111 -89 -62 -17 -7 -8 -12 -37 -64 -63 -43 -43 -11 -46 -0 -0 -135 -73 -211 -96 -79 -114 -148
-331 -354 -578 -548 -689 -643 -509 -443 -567 -516 -39 -137 -230 -144 -166 -161 -175 -201 -179 -146 -107 -91 -88 -44 -29 -10 -21 -10 -19 -46 -47 -48 -31 -29 -0 -0 -0 -15 -0 -129 -65 -97 -0
-711 -547 -556 -575 -710 -774 -476 -301 -79 -38 -96 -97 -110 -107 -145 -168 -173 -242 -194 -144 -125 -99 -85 -49 -40 -23 -25 -43 -62 -56 -63 -68 -49 -19 -17 -0 -0 -0 -0 -0 -54 -70 -0
-0 -0 -0 -881 -680 -643 -268 -88 -170 -0 -0 -507 -183 -35 -95 -124 -185 -198 -212 -201 -184 -135 -76 -78 -61 -55 -72 -50 -87 -93 -110 -107 -64 -46 -0 -0 -0 -0 -0 -18 -0 -0 -14
-790 -712 -88 -0 -0 -0 -0 -209 -232 -328 -0 -241 -357 -92 -121 -157 -187 -270 -314 -258 -228 -210 -198 -162 -123 -107 -100 -104 -108 -153 -96 -43 -19 -5 -12 -0 -0 -0 -0 -15 -0 -0 -0
-0 -0 -0 -0 -0 -0 -369 -200 -210 -399 -0 -0 -0 -0 -181 -127 -235 -331 -319 -306 -253 -205 -190 -188 -153 -40 -92 -64 -55 -95 -12 -45 -28 -13 -11 -5 -35 -41 -32 -71 -0 -0 -0
-549 -649 -74 -0 -439 -255 -248 -210 -97 -128 -249 -86 -0 -53 -135 -160 -243 -0 -0 -220 -174 -170 -160 -175 -232 -190 -193 -102 -133 -92 -108 -148 -100 -0 -0 -14 -16 -2 -0 -0 -0 -0 -0
-101 -131 -221 -262 -142 -163 -132 -103 -145 -159 -97 -96 -101 -120 -115 -125 -191 -280 -0 -0 -0 -150 -162 -193 -211 -0 -90 -0 -0 -0 -109 -139 -0 -0 -0 -0 -0 -0 -0 -0 -0 -0 -0
-111 -72 -67 -83 -91 -107 -98 -36 -30 -122 -133 -144 -191 -215 -234 -289 -327 -0 -0 -0 -58 -140 -127 -186 -227 -0 -0 -174 -0 -0 -140 -82 -121 -129 -168 -0 -0 -0 -0 -0 -0 -0 -0
-0 -112 -106 -130 -120 -95 -123 -167 -187 -131 -98 -106 -146 -236 -335 -290 -307 -0 -0 -21 -141 -138 -184 -226 -180 -204 -194 -234 -76 -94 -99 -120 -110 -172 -0 -0 -0 -0 -0 -0 -2 -0 -0
-239 -168 -160 -140 -97 -114 -122 -137 -134 -130 -125 -137 -152 -214 -19 -0 -0 -0 -0 -0 -170 -132 -196 -203 -191 -0 -234 -0 -0 -87 -108 -120 -0 -174 -0 -0 -0 -0 -12 -0 -0 -0 -0
-225 -148 -147 -142 -162 -108 -137 -136 -142 -155 -165 -200 -219 -248 -220 -174 -0 -0 -0 -0 -86 -133 -135 -145 -200 -140 -0 -0 -0 -21 -0 -0 -0 -0 -140 -0 -0 -0 -0 -0 -0 -0 -0
-168 -139 -154 -169 -147 -179 -182 -141 -137 -132 -88 -93 -113 -158 -25 -0 -0 -0 -0 -0 -0 -86 -154 -170 -191 -0 -0 -0 -0 -170 -0 -0 -106 -0 -147 -11 -0 -11 -23 -127 -0 -0 -0
-5 -83 -101 -166 -183 -211 -197 -139 -112 -86 -80 -73 -38 -101 -107 -0 -150 -173 -0 -0 -0 -0 -111 -0 -0 -0 -0 -0 -0 -0 -0 -0 -0 -132 -0 -0 -0 -100 -95 -142 -0 -0 -0
-50 -0 -97 -115 -149 -171 -135 -95 -39 -75 -50 -40 -52 -65 -69 -71 -108 -158 -22 -0 -0 -0 -119 -0 -35 -43 -0 -0 -0 -0 -0 -58 -55 -113 -0 -0 -0 -0 -0 -0 -0 -0 -0
-0 -0 -0 -0 -0 -1 -48 -202 -181 -142 -163 -0 -0 -0 -0 -40 -51 -0 -0 -0 -0 -0 -78 -88 -79 -55 -55 -109 -130 -38 -2 -7 -76 -0 -0 -0 -0 -0 -0 -0 -0 -0 -0
-0 -0 -0 -0 -0 -74 -0 -0 -0 -198 -63 -0 -0 -0 -0 -0 -0 -0 -0 -0 -0 -0 -45 -44 -33 -65 -67 -92 -0 -0 -0 -0 -102 -0 -0 -0 -0 -0 -0 -0 -0 -0 -0
-0 -0 -0 -0 -0 -0 -0 -0 -16 -1 -0 -0 -0 -0 -0 -0 -0 -0 -0 -0 -0 -0 -60 -34 -12 -11 -34 -0 -24 -4 -0 -0 -0 -34 -0 -0 -0 -0 -0 -0 -0 -0 -0
-0 -0 -0 -0 -0 -0 -0 -8 -6 -7 -3 -0 -0 -10 -0 -0 -0 -0 -0 -0 -0 -0 -0 -29 -19 -28 -27 -42 -0 -0 -0 -0 -0 -13 -0 -0 -0 -0 -0 -0 -0 -130 -113
-0 -0 -0 -0 -0 -0 -0 -0 -0 -0 -0 -0 -0 -0 -0 -0 -0 -0 -0 -0 -0 -0 -2 -1 -2 -4 -35 -54 -0 -0 -0 -0 -0 -0 -0 -0 -0 -0 -0 -80 -129 -110 -176
-0 -0 -0 -0 -0 -0 -0 -0 -0 -0 -0 -0 -0 -0 -0 -0 -0 -3 -0 -0 -0 -0 -0 -2 -8 -11 -14 -20 -29 -0 -0 -0 -0 -0 -0 -0 -0 -0 -0 -0 -0 -172 -153
-0 -0 -0 -0 -0 -0 -0 -0 -0 -0 -0 -0 -0 -0 -0 -0 -0 -0 -0 -0 -1 -4 -0 -0 -0 -0 -40 -12 -48 -49 -0 -0 -0 -0 -0 -19 -154 -174 -178 -59 -0 -0 -0
-0 -0 -0 -0 -0 -0 -0 -0 -0 -0 -0 -0 -0 -0 -0 -0 -0 -0 -0 -0 -0 -0 -0 -9 -50 -0 -0 -0 -0 -0 -0 -0 -0 -0 -0 -0 -72 -209 -220 -100 -70 -211 -0
-0 -0 -0 -0 -0 -0 -0 -0 -0 -0 -0 -0 -0 -0 -0 -0 -0 -0 -0 -0 -0 -0 -0 -0 -0 -0 -0 -0 -0 -0 -0 -0 -0 -0 -21 -180 -189 -257 -224 -213 -250 -255 -151
-0 -0 -0 -0 -0 -0 -0 -0 -0 -0 -0 -0 -0 -0 -0 -0 -0 -0 -0 -0 -0 -0 -0 -0 -0 -0 -0 -0 -0 -0 -0 -0 -0 -0 -0 -0 -0 -0 -237 -126 -265 -0 -36
-0 -0 -0 -0 -0 -0 -0 -0 -0 -0 -0 -0 -0 -0 -0 -0 -0 -0 -0 -0 -0 -0 -0 -0 -0 -0 -0 -0 -0 -0 -0 -0 -0 -0 -0 -0 -0 -0 -0 -0 -238 -229 -234
Wind_Speed
4 6 11 8 7 6 2 21 11 13 28 8 6 6 7 6 8 7 6 7 7 6 6 9 11 10 8 9 8 8 9 9 11 8 5 8 9 10 10 12 10 9 7
3 5 8 7 4 5 11 12 14 20 23 13 7 8 8 9 7 8 7 6 6 8 8 8 10 6 10 11 9 11 10 10 10 14 6 6 10 11 11 11 9 8 6
3 4 4 4 5 8 12 13 17 14 5 4 4 7 9 9 10 6 6 7 6 8 9 9 10 9 11 8 10 9 8 8 9 9 6 4 5 4 6 6 8 7 5
4 3 4 3 6 6 4 3 6 8 4 10 16 19 13 13 8 7 6 6 7 8 8 9 9 10 12 10 9 11 7 6 7 7 5 4 4 3 3 5 5 5 6
8 8 8 4 4 7 10 4 7 3 5 7 17 19 17 10 9 8 8 8 8 8 8 8 8 10 12 9 5 6 8 7 6 7 5 3 4 3 7 4 6 3 0
8 9 7 6 5 5 5 5 6 6 8 11 16 19 17 12 15 15 12 9 10 10 9 7 7 11 8 10 12 12 9 8 7 5 5 4 8 7 6 6 6 5 3
7 8 8 8 8 6 5 3 5 5 6 9 12 15 15 14 16 18 18 10 9 9 9 6 5 6 7 5 7 8 9 12 7 7 6 7 7 9 8 9 10 9 5
7 7 7 7 7 6 4 6 5 5 7 9 11 12 12 12 17 16 16 9 8 11 10 9 7 7 6 6 5 4 5 5 5 4 5 4 4 5 10 9 9 7 8
8 8 8 8 8 8 8 8 7 7 8 9 8 10 10 11 16 18 8 6 8 11 10 8 9 8 10 11 6 5 6 3 5 6 4 5 9 11 10 9 8 9 6
9 9 8 8 8 9 10 10 8 6 9 7 10 11 14 14 15 11 10 5 9 7 6 7 14 11 12 13 8 6 5 4 4 3 3 5 7 10 15 7 8 8 7
10 8 7 7 8 9 8 9 10 10 9 10 10 11 10 11 13 12 13 7 7 6 8 7 7 14 13 14 10 6 4 4 4 4 4 4 4 5 5 4 7 7 4
9 10 9 9 8 8 8 10 11 11 11 12 12 12 9 9 11 10 11 13 10 9 9 6 7 14 15 14 11 10 9 6 4 4 3 5 6 5 4 4 5 3 2
10 10 9 10 10 9 9 11 9 9 9 10 8 9 10 7 6 9 10 14 14 10 5 7 9 11 11 9 10 11 9 4 4 3 4 5 6 6 5 5 4 5 3
10 10 10 9 11 10 8 7 8 10 10 9 9 9 7 6 5 4 4 4 10 7 7 6 7 9 7 6 5 6 4 5 5 4 3 3 3 6 6 3 3 3 3
10 9 9 8 9 10 8 8 8 11 10 11 9 6 7 7 5 8 7 6 6 6 7 5 4 5 5 5 3 4 5 5 6 4 4 4 3 5 3 3 3 3 3
11 8 8 8 8 8 9 11 8 15 19 14 13 8 7 11 11 4 10 9 9 13 4 5 6 8 8 6 6 5 5 7 5 5 4 4 5 6 4 3 3 4 5
9 9 8 10 8 9 10 10 12 13 11 10 9 8 6 13 14 8 8 8 10 10 4 5 6 8 7 8 6 5 5 5 6 5 5 5 5 4 7 5 4 5 3
9 9 8 8 8 9 8 8 8 9 12 5 4 5 7 8 8 2 12 9 3 2 3 4 6 6 6 6 6 6 5 6 6 6 5 6 5 5 4 5 5 5 6
8 8 9 8 8 9 9 9 9 9 10 9 8 3 4 8 9 6 2 2 7 5 2 3 4 5 5 6 6 5 6 6 6 6 5 5 5 5 4 5 6 9 7
8 15 11 8 8 9 9 9 9 10 10 10 10 11 11 5 5 3 2 3 2 3 3 2 3 4 6 6 6 6 5 5 5 5 5 6 5 5 5 6 6 7 5
7 8 15 8 8 8 7 8 8 8 9 9 9 11 21 8 7 2 1 3 2 2 3 3 3 4 4 5 6 6 7 7 6 6 6 6 6 6 6 5 5 6 6
6 7 8 8 7 8 8 8 8 8 9 10 10 11 18 11 10 10 10 6 3 3 3 4 4 4 4 6 7 7 7 8 6 7 8 8 8 9 8 8 7 6 6
6 7 7 7 8 10 8 9 9 9 9 10 10 10 11 10 10 10 10 10 10 9 11 4 5 4 3 3 3 6 7 8 9 9 9 8 8 8 7 7 6 7 7
5 6 6 6 7 7 8 9 9 10 10 10 10 10 10 10 10 11 10 10 10 10 10 11 12 13 7 6 5 4 4 5 3 6 8 6 8 9 8 7 8 11 10
5 5 5 5 5 6 7 8 8 9 9 9 10 10 10 10 10 11 10 10 10 10 12 11 10 13 13 14 11 8 7 8 6 7 4 7 7 9 7 7 7 7 7
3 3 4 4 4 4 5 5 6 7 7 8 8 8 9 9 9 9 9 11 9 9 11 9 12 16 15 14 15 12 8 15 11 9 5 1 4 5 5 7 9 7 8
Wind_Direction
184 162 130 124 91 93 155 251 244 283 280 233 237 262 231 224 233 227 224 213 215 230 224 228 244 237 235 237 229 220 220 216 234 241 203 210 209 216 221 217 214 215 219
102 76 119 159 204 234 212 234 235 226 237 228 178 230 235 230 231 225 239 231 226 238 237 228 247 231 242 245 237 229 225 220 222 242 200 204 209 207 214 209 209 210 204
120 130 141 278 215 234 225 221 230 239 297 308 219 242 244 242 241 231 223 242 230 237 242 236 251 241 250 237 237 241 230 226 224 236 231 186 197 183 190 194 203 206 189
242 187 186 269 301 291 297 348 70 80 31 36 320 294 257 242 233 222 214 227 243 250 249 239 243 244 244 235 226 234 228 214 212 227 222 198 186 163 173 190 193 205 199
332 333 324 327 207 261 290 232 178 169 141 200 234 258 266 248 236 214 213 225 231 237 236 242 247 232 224 215 211 221 221 211 204 208 206 173 183 179 201 189 200 155 223
326 313 303 296 281 267 268 240 226 234 223 221 241 253 267 250 228 219 214 215 220 231 233 221 221 251 231 233 232 220 198 211 204 194 203 210 217 205 179 181 151 166 165
305 302 304 306 307 310 311 304 315 282 241 244 251 255 256 247 236 232 220 222 223 226 227 229 227 234 216 217 240 234 224 218 193 216 222 221 232 203 170 174 176 178 159
301 297 291 291 300 302 295 287 271 222 235 239 243 248 248 247 245 238 227 214 226 231 223 216 212 208 197 181 190 208 212 193 188 189 206 215 206 172 185 173 153 129 120
280 278 285 293 297 298 298 291 271 275 282 273 257 262 256 255 249 245 189 215 232 244 235 213 202 200 198 177 175 197 205 183 199 215 203 180 148 132 128 129 133 129 126
271 265 265 277 271 277 277 277 270 236 252 258 262 256 260 262 256 234 192 206 233 234 230 217 209 200 182 176 175 193 175 183 166 141 127 109 136 142 145 143 147 124 123
289 289 282 282 277 276 278 285 287 282 275 271 268 268 256 241 250 217 200 199 222 232 231 222 218 197 184 180 167 177 168 137 156 156 127 117 125 144 151 149 156 144 132
306 300 299 290 288 295 289 292 289 291 293 294 297 295 288 272 243 232 212 209 213 222 222 212 208 185 179 180 173 175 162 162 125 133 169 153 161 162 163 148 142 133 104
300 296 295 293 292 289 286 287 291 285 279 283 286 287 290 288 268 231 229 228 223 223 199 202 166 162 152 147 156 160 157 142 135 164 180 198 180 160 148 128 107 110 74
306 313 307 298 302 301 293 287 288 292 290 284 281 279 280 278 273 226 202 204 218 211 167 154 149 142 158 147 153 155 158 154 167 183 194 126 129 147 164 136 125 122 122
321 316 312 311 308 307 300 297 294 288 275 282 279 270 280 280 248 218 185 186 186 180 144 138 147 153 163 158 162 168 163 170 183 180 165 151 153 148 141 140 112 112 140
327 324 320 320 322 322 320 321 297 270 283 286 266 253 281 265 293 263 211 198 166 149 144 167 168 173 176 176 179 182 180 176 177 180 176 163 154 155 138 134 123 153 169
327 324 323 326 327 326 334 331 318 317 301 287 294 315 298 280 301 291 188 186 164 154 184 174 174 179 177 175 177 175 188 190 170 181 193 174 153 143 145 167 156 162 147
336 326 338 331 331 334 330 325 324 338 340 328 49 46 358 344 334 124 145 120 117 242 192 167 180 181 174 171 177 184 177 164 178 183 182 168 162 146 149 163 175 172 182
341 343 340 339 341 338 333 344 343 339 355 354 360 0 70 43 40 56 238 149 167 172 180 192 175 162 169 168 178 182 180 182 181 176 168 164 168 151 163 168 174 180 182
344 349 355 348 350 353 356 358 354 356 356 358 2 6 342 342 11 33 319 332 164 165 170 196 204 181 187 179 179 176 190 194 183 175 169 172 170 178 177 175 181 185 182
348 352 0 360 358 355 357 360 353 357 1 358 358 359 348 2 348 15 237 274 229 198 202 209 203 192 187 185 178 184 191 198 194 191 182 175 169 181 189 187 188 185 184
354 355 3 4 356 2 4 4 6 5 4 3 358 358 360 20 11 6 8 341 292 228 218 204 226 213 196 194 197 194 194 200 203 199 189 186 187 195 192 195 192 193 185
11 9 8 9 9 7 12 14 16 13 13 11 8 8 11 12 9 7 15 11 10 4 354 279 220 223 203 221 216 202 196 202 205 199 198 198 196 196 185 186 181 191 191
7 11 9 8 11 14 16 18 16 16 18 16 14 16 16 14 13 15 16 18 18 18 21 15 15 18 45 36 29 31 17 351 284 201 204 200 196 190 190 186 191 202 198
10 14 17 5 8 8 9 14 15 16 18 18 18 16 17 17 20 17 16 22 24 24 23 19 22 16 19 38 26 23 14 10 29 324 190 200 195 193 195 209 196 197 190
2 4 17 6 6 6 12 11 13 11 13 10 11 15 16 21 18 21 17 20 19 20 22 25 19 24 10 30 21 347 25 42 19 356 348 17 167 180 185 196 194 195 195